Location: Pine Lake Village
(34.3370°N, 86.5394°W)
Time: 15:13:19
(UTC+00:00)

Tiangong 2 - Visible Passes

Search period start: 15 August 2018 00:00
Search period end: 25 August 2018 00:00
Orbit: 384 x 395 km, 42.8° (Epoch: 15 August)

Date Brightness Start Highest point End Pass type
(mag) Time Alt. Az. Time Alt. Az. Time Alt. Az.
15 Aug 1.3 10:15:08 17° SW 10:17:29 66° SSE 10:20:41 10° ENE visible
16 Aug 2.4 09:20:05 32° SE 09:20:05 32° SE 09:22:38 10° ENE visible
17 Aug 1.3 09:57:18 30° W 09:58:38 60° NNW 10:01:48 10° NE visible
18 Aug 2.9 09:02:08 31° ENE 09:02:08 31° ENE 09:03:57 10° ENE visible
18 Aug 2.9 10:35:09 10° WNW 10:37:51 24° NNW 10:40:34 10° NE visible
19 Aug 2.2 09:39:15 31° NW 09:39:50 34° NNW 09:42:48 10° NE visible
20 Aug 4.0 08:44:01 18° NE 08:44:01 18° NE 08:45:02 10° NE visible
20 Aug 3.3 10:16:46 10° WNW 10:19:11 19° N 10:21:36 10° NE visible
21 Aug 3.0 09:21:06 23° NNW 09:21:06 23° NNW 09:23:46 10° NE visible
22 Aug 4.7 08:25:52 11° NE 08:25:52 11° NE 08:25:59 10° NE visible
22 Aug 3.6 09:58:17 10° NW 10:00:31 17° N 10:02:48 10° NE visible
23 Aug 3.7 09:02:59 18° N 09:02:59 18° N 09:04:47 10° NE visible
23 Aug 3.4 10:37:28 10° NW 10:39:58 21° N 10:42:30 10° ENE visible
24 Aug 3.6 09:40:09 13° NNW 09:41:52 18° N 09:44:11 10° NE visible
